#timestamp,LO_Frequency,Hit,StdDev 
1709532015.3,286046996.7,Y
1709532035.2,286046999.5,P
1709532055.9,286046997.5,P
1709532075.7,286046997.9,N
1709532095.6,286046995.9,Y
1709532115.4,286046997.7,P
1709532135.2,286046995.8,P
1709532155.1,286046997.4,N
1709532156.0,286046997.4,N
1709532175.8,286046997.7,N
1709532195.7,286046996.8,Y
1709532215.5,286047000.0,P
1709532235.3,286047000.7,N
1709532255.2,286046998.8,N
1709532275.0,286046996.8,N
1709532275.9,286046996.8,N
1709532295.8,286046999.2,N
1709532315.6,286046998.8,N
1709532335.4,286047000.4,N
1709532355.3,286047000.6,N
1709532375.1,286046998.8,N
1709532395.8,286046999.2,N
1709532415.7,286046997.1,N
1709532435.5,286046993.3,Y
1709532455.4,286046993.9,P
1709532475.2,286046994.7,N
1709532495.0,286046991.7,P
1709532496.0,286046991.7,Y
1709532515.8,286046996.7,P
1709532535.6,286046997.6,N
1709532555.5,286046997.6,N
1709532575.3,286046997.3,N
1709532595.1,286046998.0,N
1709532615.9,286046995.6,Y
1709532635.7,286046998.5,P
1709532655.6,286046998.5,N
1709532675.4,286046998.3,N
1709532695.2,286047000.9,N
1709532715.1,286047001.1,N
1709532716.0,286047001.1,N
1709532735.8,286047001.1,N
1709532755.6,286046999.0,N
1709532775.5,286046996.6,N
1709532795.3,286046996.6,N
1709532815.2,286046999.2,N
1709532835.9,286046999.4,N
1709532855.7,286046998.7,N
1709532875.6,286046999.6,N
1709532895.4,286046999.1,N
1709532915.7,286046999.5,N
1709532935.5,286046997.6,N
1709532955.3,286046997.7,N
1709532975.2,286046995.5,Y
1709532995.0,286046997.1,P
1709532995.9,286046997.1,P
1709533015.7,286046997.7,N
1709533035.6,286046996.9,Y
1709533055.4,286047001.0,P
1709533075.3,286047000.8,N
1709533095.1,286046998.1,N
1709533115.8,286046998.3,N
1709533135.7,286047000.9,N
1709533155.5,286047000.7,N
1709533175.3,286047001.2,N
1709533195.2,286046998.5,N
1709533215.0,286047000.7,N
1709533215.9,286047000.7,N
1709533235.8,286047001.2,N
1709533255.6,286047000.6,N
1709533275.4,286047000.8,N
1709533295.3,286046998.5,N
1709533315.1,286047001.1,N
1709533335.8,286047001.0,N
1709533355.7,286047000.5,N
1709533375.5,286047001.0,N
1709533395.4,286047000.2,N
1709533415.2,286046998.6,N
1709533435.0,286046998.2,N
1709533435.9,286046998.2,N
1709533455.8,286047000.6,N
1709533475.6,286047000.1,N
1709533495.4,286047000.6,N
1709533515.3,286046999.8,N
1709533535.1,286047000.6,N
1709533555.9,286047002.4,N
1709533575.7,286047002.3,N
1709533595.5,286047000.7,N
1709533615.4,286047000.5,N
1709533635.2,286047001.0,N
1709533655.0,286047000.3,N
1709533655.9,286047000.3,N
1709533675.8,286047002.5,N
1709533695.6,286046999.9,N
1709533715.5,286047001.5,N
1709533735.3,286047004.0,Y
1709533755.1,286047000.5,P
1709533775.9,286047000.9,P
1709533795.7,286046999.9,N
1709533815.5,286047001.9,Y
1709533835.4,286047002.2,P
1709533855.2,286047002.6,N
1709533875.1,286046999.8,N
1709533876.0,286046999.8,N
1709533895.8,286047000.5,N
1709533915.6,286047000.1,N
1709533935.5,286047001.7,N
1709533955.3,286047004.0,Y
1709533975.2,286047001.6,P
1709533995.9,286047002.2,P
1709534015.7,286047001.6,N
1709534035.6,286047004.4,Y
1709534055.4,286047001.0,P
1709534075.2,286047001.8,P
1709534095.1,286046999.8,N
1709534096.0,286046999.8,N
1709534115.8,286047000.1,N
1709534135.7,286047002.1,N
1709534155.5,286047000.6,N
1709534175.3,286046998.7,N
1709534195.2,286046998.2,N
1709534215.0,286047001.1,N
1709534215.9,286047001.1,N
1709534235.8,286046999.0,N
1709534255.6,286047000.6,N
1709534275.4,286047000.9,N
1709534295.3,286047001.2,N
1709534315.1,286047000.5,N
1709534335.8,286047002.4,N
1709534355.9,286047001.8,N
1709534375.7,286047004.1,Y
1709534395.5,286047002.0,P
1709534415.4,286047001.0,N
1709534435.2,286047002.2,P
1709534455.1,286047002.5,Y
1709534456.0,286047002.5,P
1709534475.8,286047001.1,N
1709534495.6,286046998.5,N
1709534515.5,286046998.1,N
1709534535.3,286047000.6,N
1709534555.2,286047001.0,N
1709534575.9,286047000.3,N
1709534595.7,286047000.5,N
1709534615.6,286046998.2,N
1709534635.4,286047000.0,N
1709534655.2,286047001.2,N
1709534675.1,286046999.7,N
1709534676.0,286046999.7,N
1709534695.8,286047000.5,N
1709534715.7,286047001.2,N
1709534735.5,286047000.4,N
1709534755.3,286047001.5,N
1709534775.2,286047004.3,Y
1709534795.0,286047002.3,P
1709534795.9,286047002.3,N
1709534815.8,286047003.8,P
1709534835.6,286047003.5,N
1709534855.4,286047001.3,N
1709534875.3,286047004.0,Y
1709534895.1,286046999.7,P
1709534915.8,286047002.3,N
1709534935.7,286047002.5,N
1709534955.5,286047002.7,N
1709534975.3,286047001.8,N
1709534995.2,286047002.2,N
1709535015.0,286047002.8,N
1709535015.9,286047002.8,N
1709535035.8,286047001.0,N
1709535055.6,286047000.6,N
1709535075.4,286047000.1,N
1709535095.3,286047000.3,N
1709535115.1,286047000.1,N
1709535135.8,286047001.9,N
1709535155.7,286047003.6,Y
1709535175.5,286047001.7,P
1709535195.4,286047001.8,P
1709535215.2,286047003.1,P
1709535235.0,286047003.1,Y
1709535255.9,286047003.8,P
1709535275.7,286047003.8,P
1709535295.6,286047003.1,P
1709535315.4,286047001.5,N
1709535335.2,286046999.8,N
1709535355.1,286047000.2,N
1709535356.0,286047000.2,N
1709535375.8,286047002.6,N
1709535395.1,286047003.9,N
1709535415.2,286047003.0,N
1709535435.1,286047006.0,Y
1709535436.0,286047006.0,P
1709535455.8,286047002.1,N
1709535475.7,286047000.2,N
1709535495.5,286047001.6,N
1709535515.3,286047002.1,N
1709535535.2,286047002.6,N
1709535555.0,286047001.5,N
1709535575.9,286047001.9,N
1709535595.7,286047001.8,N
